,,Stat6,,Stat2,,Stat8,,Stat9,,Stat10,,Wind1,,Wind1,
time,status,PA1M_AVG,status,PR1M_SUM,status,RH1M_AVG,status,SR1M_AVG,status,TA1M_AVG,status,W1dAve1m,status,W1sAve1m,
2009-05-10, 00:00:00,VALID,917.013,VALID,0,VALID,100,VALID,0,VALID,20.4784,VALID,10,VALID,0.0914634,
2009-05-10, 00:01:00,VALID,916.977,VALID,0,VALID,100,VALID,0.0679233,VALID,20.4621,VALID,359,VALID,0.392721,
2009-05-10, 00:02:00,VALID,916.955,VALID,0,VALID,100,VALID,0,VALID,20.4489,VALID,9,VALID,0,
2009-05-10, 00:03:00,VALID,916.926,VALID,0,VALID,100,VALID,0.0169808,VALID,20.4264,VALID,26,VALID,0.0556641,
2009-05-10, 00:04:00,VALID,916.915,VALID,0,VALID,100,VALID,0,VALID,20.4264,VALID,27,VALID,0.414236,
2009-05-10, 00:05:00,VALID,916.888,VALID,0,VALID,100,VALID,0,VALID,20.4264,VALID,12,VALID,0.676235,
2009-05-10, 00:06:00,VALID,916.854,VALID,0,VALID,100,VALID,0.0169808,VALID,20.404,VALID,20,VALID,0.488477,
2009-05-10, 00:07:00,VALID,916.828,VALID,0,VALID,100,VALID,0.0509425,VALID,20.3872,VALID,12,VALID,0,
2009-05-10, 00:08:00,VALID,916.792,VALID,0,VALID,100,VALID,0,VALID,20.3645,VALID,7,VALID,0.959263,
2009-05-10, 00:09:00,VALID,916.781,VALID,0,VALID,100,VALID,-0.101885,VALID,20.3271,VALID,358,VALID,0.169513,
2009-05-10, 00:10:00,VALID,916.739,VALID,0,VALID,100,VALID,-0.0679233,VALID,20.3209,VALID,20,VALID,0,
2009-05-10, 00:11:00,VALID,916.703,VALID,0,VALID,100,VALID,-0.0849042,VALID,20.3111,VALID,22,VALID,0.0308689,
2009-05-10, 00:12:00,VALID,916.675,VALID,0,VALID,100,VALID,-0.0849042,VALID,20.3176,VALID,22,VALID,0.0902158,
2009-05-10, 00:13:00,VALID,916.623,VALID,0,VALID,100,VALID,-0.101885,VALID,20.3244,VALID,23,VALID,0.0122768,
2009-05-10, 00:14:00,VALID,916.563,VALID,0,VALID,100,VALID,-0.0849042,VALID,20.3109,VALID,22,VALID,0.301448,
2009-05-10, 00:15:00,VALID,916.519,VALID,0,VALID,100,VALID,-0.0849042,VALID,20.2819,VALID,12,VALID,0.232143,
2009-05-10, 00:16:00,VALID,916.499,VALID,0,VALID,100,VALID,-0.0509425,VALID,20.2557,VALID,11,VALID,0.350654,
2009-05-10, 00:17:00,VALID,916.441,VALID,0,VALID,100,VALID,-0.0849042,VALID,20.2462,VALID,25,VALID,0.450335,
2009-05-10, 00:18:00,VALID,916.417,VALID,0,VALID,100,VALID,-0.0849042,VALID,20.2068,VALID,18,VALID,0.98316,
2009-05-10, 00:19:00,VALID,916.365,VALID,0,VALID,100,VALID,-0.0509425,VALID,20.197,VALID,24,VALID,0.981105,
2009-05-10, 00:20:00,VALID,916.355,VALID,0,VALID,100,VALID,-0.0509425,VALID,20.2008,VALID,10,VALID,0.807546,
2009-05-10, 00:21:00,VALID,916.316,VALID,0,VALID,100,VALID,-0.0849042,VALID,20.1746,VALID,14,VALID,0,
2009-05-10, 00:22:00,VALID,916.274,VALID,0,VALID,100,VALID,-0.0509425,VALID,20.1711,VALID,17,VALID,0.00209604,
2009-05-10, 00:23:00,VALID,916.245,VALID,0,VALID,100,VALID,-0.0509425,VALID,20.1681,VALID,26,VALID,0.142578,
2009-05-10, 00:24:00,VALID,916.232,VALID,0,VALID,100,VALID,-0.0339617,VALID,20.1421,VALID,24,VALID,0,
2009-05-10, 00:25:00,VALID,916.216,VALID,0,VALID,100,VALID,-0.0339617,VALID,20.1192,VALID,19,VALID,0.0139509,
2009-05-10, 00:26:00,VALID,916.196,VALID,0,VALID,100,VALID,-0.0679233,VALID,20.1092,VALID,9,VALID,0,
2009-05-10, 00:27:00,VALID,916.17,VALID,0,VALID,100,VALID,-0.0679233,VALID,20.0932,VALID,15,VALID,0,
2009-05-10, 00:28:00,VALID,916.147,VALID,0,VALID,100,VALID,-0.0169808,VALID,20.0707,VALID,45,VALID,0,
2009-05-10, 00:29:00,VALID,916.145,VALID,0,VALID,100,VALID,-0.0679233,VALID,20.051,VALID,52,VALID,0,
2009-05-10, 00:30:00,VALID,916.123,VALID,0,VALID,100,VALID,-0.0169808,VALID,20.0572,VALID,49,VALID,0,
2009-05-10, 00:31:00,VALID,916.122,VALID,0,VALID,100,VALID,-0.0509425,VALID,20.054,VALID,49,VALID,0,
2009-05-10, 00:32:00,VALID,916.094,VALID,0,VALID,100,VALID,-0.0339617,VALID,20.0513,VALID,57,VALID,0,
2009-05-10, 00:33:00,VALID,916.06,VALID,0,VALID,100,VALID,-0.0849042,VALID,20.0318,VALID,68,VALID,0,
2009-05-10, 00:34:00,VALID,916.032,VALID,0,VALID,100,VALID,-0.0849042,VALID,20.0023,VALID,54,VALID,0,
2009-05-10, 00:35:00,VALID,916.005,VALID,0,VALID,100,VALID,-0.0509425,VALID,20.0056,VALID,51,VALID,0,
2009-05-10, 00:36:00,VALID,915.977,VALID,0,VALID,100,VALID,-0.0339617,VALID,20.0218,VALID,52,VALID,0,
2009-05-10, 00:37:00,VALID,915.972,VALID,0,VALID,100,VALID,-0.0849042,VALID,20.0081,VALID,44,VALID,0.168155,
2009-05-10, 00:38:00,VALID,915.978,VALID,0,VALID,100,VALID,-0.0679233,VALID,20.028,VALID,22,VALID,0.0065407,
2009-05-10, 00:39:00,VALID,915.969,VALID,0,VALID,100,VALID,-0.0509425,VALID,20.031,VALID,25,VALID,0,
2009-05-10, 00:40:00,VALID,915.946,VALID,0,VALID,100,VALID,-0.101885,VALID,20.0253,VALID,21,VALID,0,
2009-05-10, 00:41:00,VALID,915.936,VALID,0,VALID,100,VALID,-0.0509425,VALID,20.0186,VALID,18,VALID,0,
2009-05-10, 00:42:00,VALID,915.94,VALID,0,VALID,100,VALID,-0.0509425,VALID,20.0088,VALID,30,VALID,0.00223214,
2009-05-10, 00:43:00,VALID,915.951,VALID,0,VALID,100,VALID,-0.0339617,VALID,19.9921,VALID,17,VALID,0.117773,
2009-05-10, 00:44:00,VALID,915.951,VALID,0,VALID,100,VALID,-0.0339617,VALID,19.9724,VALID,32,VALID,0.003125,
2009-05-10, 00:45:00,VALID,915.966,VALID,0,VALID,100,VALID,-0.0679233,VALID,19.9666,VALID,28,VALID,0.0396205,
2009-05-10, 00:46:00,VALID,915.984,VALID,0,VALID,100,VALID,-0.0169808,VALID,19.9594,VALID,26,VALID,0,
2009-05-10, 00:47:00,VALID,915.993,VALID,0,VALID,100,VALID,-0.0679233,VALID,19.9599,VALID,15,VALID,0.154797,
2009-05-10, 00:48:00,VALID,915.993,VALID,0,VALID,100,VALID,-0.0509425,VALID,19.9337,VALID,36,VALID,0,
2009-05-10, 00:49:00,VALID,915.987,VALID,0,VALID,100,VALID,-0.0509425,VALID,19.9204,VALID,48,VALID,0,
2009-05-10, 00:50:00,VALID,915.986,VALID,0,VALID,100,VALID,-0.0169808,VALID,19.917,VALID,23,VALID,0.0421875,
2009-05-10, 00:51:00,VALID,916.007,VALID,0,VALID,100,VALID,-0.0509425,VALID,19.9212,VALID,30,VALID,0,
2009-05-10, 00:52:00,VALID,915.995,VALID,0,VALID,100,VALID,-0.0679233,VALID,19.902,VALID,24,VALID,0.000186012,
2009-05-10, 00:53:00,VALID,915.99,VALID,0,VALID,100,VALID,-0.0679233,VALID,19.892,VALID,26,VALID,0.025436,
2009-05-10, 00:54:00,VALID,916.02,VALID,0,VALID,100,VALID,0,VALID,19.8753,VALID,31,VALID,0.00142045,
2009-05-10, 00:55:00,VALID,916.021,VALID,0,VALID,100,VALID,-0.0849042,VALID,19.879,VALID,28,VALID,0,
2009-05-10, 00:56:00,VALID,916.038,VALID,0,VALID,100,VALID,-0.0509425,VALID,19.8725,VALID,14,VALID,0,
2009-05-10, 00:57:00,VALID,916.037,VALID,0,VALID,100,VALID,-0.0339617,VALID,19.8593,VALID,30,VALID,0.0381098,
2009-05-10, 00:58:00,VALID,916.029,VALID,0,VALID,100,VALID,-0.0679233,VALID,19.8725,VALID,36,VALID,0,
2009-05-10, 00:59:00,VALID,916.003,VALID,0,VALID,100,VALID,-0.0169808,VALID,19.862,VALID,31,VALID,0.10665,
2009-05-10, 01:00:00,VALID,915.985,VALID,0,VALID,100,VALID,-0.0339617,VALID,19.8623,VALID,38,VALID,0.0847942,
2009-05-10, 01:01:00,VALID,915.94,VALID,0,VALID,100,VALID,-0.0339617,VALID,19.8558,VALID,49,VALID,0.0148628,
2009-05-10, 01:02:00,VALID,915.907,VALID,0,VALID,100,VALID,-0.0169808,VALID,19.8431,VALID,54,VALID,0.0853207,
2009-05-10, 01:03:00,VALID,915.867,VALID,0,VALID,100,VALID,-0.0339617,VALID,19.8433,VALID,54,VALID,0.0435014,
2009-05-10, 01:04:00,VALID,915.842,VALID,0,VALID,100,VALID,-0.0509425,VALID,19.8498,VALID,53,VALID,0,
2009-05-10, 01:05:00,VALID,915.834,VALID,0,VALID,100,VALID,-0.0679233,VALID,19.8171,VALID,43,VALID,0,
2009-05-10, 01:06:00,VALID,915.824,VALID,0,VALID,100,VALID,-0.0509425,VALID,19.8176,VALID,52,VALID,0,
2009-05-10, 01:07:00,VALID,915.83,VALID,0,VALID,99.999,VALID,-0.0849042,VALID,19.8176,VALID,56,VALID,0,
2009-05-10, 01:08:00,VALID,915.829,VALID,0,VALID,100,VALID,-0.0339617,VALID,19.8174,VALID,52,VALID,0,
2009-05-10, 01:09:00,VALID,915.826,VALID,0,VALID,99.999,VALID,-0.0509425,VALID,19.8174,VALID,53,VALID,0,
2009-05-10, 01:10:00,VALID,915.817,VALID,0,VALID,99.9916,VALID,-0.0339617,VALID,19.8106,VALID,55,VALID,0,
2009-05-10, 01:11:00,VALID,915.805,VALID,0,VALID,99.9367,VALID,-0.0509425,VALID,19.8014,VALID,55,VALID,0,
2009-05-10, 01:12:00,VALID,915.81,VALID,0,VALID,99.8973,VALID,-0.0339617,VALID,19.7682,VALID,47,VALID,0,
2009-05-10, 01:13:00,VALID,915.822,VALID,0,VALID,99.8655,VALID,-0.0679233,VALID,19.7717,VALID,56,VALID,0,
2009-05-10, 01:14:00,VALID,915.825,VALID,0,VALID,99.8273,VALID,-0.0509425,VALID,19.7779,VALID,55,VALID,0,
2009-05-10, 01:15:00,VALID,915.839,VALID,0,VALID,99.8184,VALID,-0.0339617,VALID,19.7679,VALID,57,VALID,0,
2009-05-10, 01:16:00,VALID,915.826,VALID,0,VALID,99.7765,VALID,-0.0339617,VALID,19.7582,VALID,50,VALID,0,
2009-05-10, 01:17:00,VALID,915.818,VALID,0,VALID,99.7981,VALID,0,VALID,19.7382,VALID,23,VALID,0,
2009-05-10, 01:18:00,VALID,915.818,VALID,0,VALID,99.7383,VALID,-0.0169808,VALID,19.7585,VALID,297,VALID,0,
2009-05-10, 01:19:00,VALID,915.8,VALID,0,VALID,99.7383,VALID,0,VALID,19.7679,VALID,276,VALID,0,
2009-05-10, 01:20:00,VALID,915.785,VALID,0,VALID,99.8057,VALID,-0.0169808,VALID,19.7877,VALID,275,VALID,0,
2009-05-10, 01:21:00,VALID,915.771,VALID,0,VALID,99.8947,VALID,-0.0169808,VALID,19.7877,VALID,275,VALID,0,
2009-05-10, 01:22:00,VALID,915.753,VALID,0,VALID,99.9557,VALID,-0.0169808,VALID,19.7807,VALID,275,VALID,0,
2009-05-10, 01:23:00,VALID,915.726,VALID,0,VALID,99.9023,VALID,-0.0339617,VALID,19.7677,VALID,275,VALID,0,
2009-05-10, 01:24:00,VALID,915.698,VALID,0,VALID,99.8629,VALID,0,VALID,19.745,VALID,251,VALID,0,
2009-05-10, 01:25:00,VALID,915.681,VALID,0,VALID,99.9494,VALID,-0.0169808,VALID,19.7323,VALID,212,VALID,0,
2009-05-10, 01:26:00,VALID,915.685,VALID,0,VALID,99.9341,VALID,-0.0339617,VALID,19.7258,VALID,212,VALID,0,
2009-05-10, 01:27:00,VALID,915.694,VALID,0,VALID,99.8896,VALID,0,VALID,19.7028,VALID,212,VALID,0,
2009-05-10, 01:28:00,VALID,915.695,VALID,0,VALID,99.9779,VALID,-0.0339617,VALID,19.6933,VALID,212,VALID,0,
2009-05-10, 01:29:00,VALID,915.701,VALID,0,VALID,100,VALID,0,VALID,19.6871,VALID,212,VALID,0,
2009-05-10, 01:30:00,VALID,915.71,VALID,0,VALID,100,VALID,0,VALID,19.6836,VALID,212,VALID,0,
2009-05-10, 01:31:00,VALID,915.722,VALID,0,VALID,100,VALID,0,VALID,19.6773,VALID,212,VALID,0,
2009-05-10, 01:32:00,VALID,915.713,VALID,0,VALID,100,VALID,0,VALID,19.6733,VALID,210,VALID,0,
2009-05-10, 01:33:00,VALID,915.684,VALID,0,VALID,100,VALID,-0.0169808,VALID,19.6771,VALID,202,VALID,0,
2009-05-10, 01:34:00,VALID,915.658,VALID,0,VALID,100,VALID,0,VALID,19.6549,VALID,199,VALID,0,
2009-05-10, 01:35:00,VALID,915.631,VALID,0,VALID,100,VALID,-0.0169808,VALID,19.6057,VALID,199,VALID,0,
2009-05-10, 01:36:00,VALID,915.602,VALID,0,VALID,100,VALID,-0.0339617,VALID,19.5598,VALID,153,VALID,0,
2009-05-10, 01:37:00,VALID,915.582,VALID,0,VALID,100,VALID,-0.0169808,VALID,19.5403,VALID,147,VALID,0,
2009-05-10, 01:38:00,VALID,915.554,VALID,0,VALID,100,VALID,0,VALID,19.56,VALID,147,VALID,0,
2009-05-10, 01:39:00,VALID,915.524,VALID,0,VALID,100,VALID,-0.0169808,VALID,19.5832,VALID,147,VALID,0,
2009-05-10, 01:40:00,VALID,915.499,VALID,0,VALID,100,VALID,0,VALID,19.6025,VALID,147,VALID,0,
2009-05-10, 01:41:00,VALID,915.466,VALID,0,VALID,100,VALID,-0.0509425,VALID,19.593,VALID,149,VALID,0,
2009-05-10, 01:42:00,VALID,915.429,VALID,0,VALID,100,VALID,-0.0509425,VALID,19.5735,VALID,145,VALID,0,
2009-05-10, 01:43:00,VALID,915.409,VALID,0,VALID,100,VALID,-0.0509425,VALID,19.5473,VALID,147,VALID,0,
2009-05-10, 01:44:00,VALID,915.408,VALID,0,VALID,100,VALID,-0.0339617,VALID,19.5411,VALID,157,VALID,0,
2009-05-10, 01:45:00,VALID,915.406,VALID,0,VALID,100,VALID,0,VALID,19.5346,VALID,157,VALID,0,
2009-05-10, 01:46:00,VALID,915.394,VALID,0,VALID,100,VALID,-0.0169808,VALID,19.5243,VALID,157,VALID,0,
2009-05-10, 01:47:00,VALID,915.378,VALID,0,VALID,100,VALID,-0.0339617,VALID,19.5346,VALID,155,VALID,0,
2009-05-10, 01:48:00,VALID,915.34,VALID,0,VALID,100,VALID,-0.0169808,VALID,19.5341,VALID,156,VALID,0,
2009-05-10, 01:49:00,VALID,915.314,VALID,0,VALID,100,VALID,-0.0339617,VALID,19.5146,VALID,146,VALID,0,
2009-05-10, 01:50:00,VALID,915.269,VALID,0,VALID,100,VALID,0,VALID,19.4926,VALID,138,VALID,0,
2009-05-10, 01:51:00,VALID,915.241,VALID,0,VALID,100,VALID,-0.0339617,VALID,19.5081,VALID,144,VALID,0,
2009-05-10, 01:52:00,VALID,915.223,VALID,0,VALID,100,VALID,-0.0169808,VALID,19.5241,VALID,165,VALID,0.00111607,
2009-05-10, 01:53:00,VALID,915.214,VALID,0,VALID,100,VALID,-0.0169808,VALID,19.5206,VALID,162,VALID,0.0660511,
2009-05-10, 01:54:00,VALID,915.195,VALID,0,VALID,100,VALID,0,VALID,19.5368,VALID,163,VALID,0,
2009-05-10, 01:55:00,VALID,915.173,VALID,0,VALID,100,VALID,0.0169808,VALID,19.5368,VALID,163,VALID,0,
2009-05-10, 01:56:00,VALID,915.163,VALID,0,VALID,100,VALID,0,VALID,19.5243,VALID,164,VALID,0.103659,
2009-05-10, 01:57:00,VALID,915.166,VALID,0,VALID,100,VALID,-0.0169808,VALID,19.5273,VALID,171,VALID,0,
2009-05-10, 01:58:00,VALID,915.166,VALID,0,VALID,100,VALID,0,VALID,19.5209,VALID,159,VALID,0,
2009-05-10, 01:59:00,VALID,915.149,VALID,0,VALID,100,VALID,0,VALID,19.5044,VALID,146,VALID,0,
2009-05-10, 02:00:00,VALID,915.126,VALID,0,VALID,100,VALID,0,VALID,19.5046,VALID,138,VALID,0,
2009-05-10, 02:01:00,VALID,915.092,VALID,0,VALID,100,VALID,0.0169808,VALID,19.4914,VALID,130,VALID,0,
2009-05-10, 02:02:01,VALID,915.054,VALID,0,VALID,100,VALID,-0.0169808,VALID,19.4655,VALID,95,VALID,0,
2009-05-10, 02:03:00,VALID,915.031,VALID,0,VALID,100,VALID,0,VALID,19.4363,VALID,84,VALID,0.113009,
2009-05-10, 02:04:00,VALID,915.021,VALID,0,VALID,100,VALID,0,VALID,19.4333,VALID,86,VALID,0,
2009-05-10, 02:05:00,VALID,915.005,VALID,0,VALID,100,VALID,-0.0339617,VALID,19.443,VALID,93,VALID,0,
2009-05-10, 02:06:00,VALID,915.011,VALID,0,VALID,100,VALID,-0.0169808,VALID,19.4397,VALID,119,VALID,0,
2009-05-10, 02:07:01,VALID,915.018,VALID,0,VALID,100,VALID,0,VALID,19.4363,VALID,128,VALID,0,
2009-05-10, 02:08:00,VALID,915.03,VALID,0,VALID,100,VALID,0,VALID,19.427,VALID,128,VALID,0,
2009-05-10, 02:09:01,VALID,915.011,VALID,0,VALID,100,VALID,0,VALID,19.4203,VALID,128,VALID,0,
2009-05-10, 02:10:00,VALID,914.999,VALID,0,VALID,100,VALID,-0.0339617,VALID,19.3911,VALID,123,VALID,0,
2009-05-10, 02:11:00,VALID,914.978,VALID,0,VALID,100,VALID,-0.0339617,VALID,19.4108,VALID,105,VALID,0,
2009-05-10, 02:12:00,VALID,914.974,VALID,0,VALID,100,VALID,-0.101885,VALID,19.4305,VALID,108,VALID,0,
2009-05-10, 02:13:01,VALID,914.982,VALID,0,VALID,100,VALID,-0.0849042,VALID,19.4368,VALID,108,VALID,0,
2009-05-10, 02:14:00,VALID,914.982,VALID,0,VALID,100,VALID,-0.0339617,VALID,19.42,VALID,108,VALID,0.000181686,
2009-05-10, 02:15:00,VALID,915.001,VALID,0,VALID,100,VALID,0.0169808,VALID,19.4105,VALID,108,VALID,0.00093006,
2009-05-10, 02:16:00,VALID,915.032,VALID,0,VALID,100,VALID,0.0169808,VALID,19.4235,VALID,108,VALID,0,
2009-05-10, 02:17:00,VALID,915.065,VALID,0,VALID,100,VALID,-0.0169808,VALID,19.446,VALID,108,VALID,0,
2009-05-10, 02:18:00,VALID,915.082,VALID,0,VALID,100,VALID,-0.0169808,VALID,19.4492,VALID,108,VALID,0,
2009-05-10, 02:19:00,VALID,915.1,VALID,0,VALID,100,VALID,-0.0169808,VALID,19.4462,VALID,112,VALID,0,
2009-05-10, 02:20:01,VALID,915.11,VALID,0,VALID,100,VALID,0,VALID,19.4689,VALID,114,VALID,0,
2009-05-10, 02:21:01,VALID,915.119,VALID,0,VALID,100,VALID,0,VALID,19.4657,VALID,115,VALID,0,
2009-05-10, 02:22:00,VALID,915.126,VALID,0,VALID,100,VALID,-0.0169808,VALID,19.4557,VALID,127,VALID,0,
2009-05-10, 02:23:01,VALID,915.131,VALID,0,VALID,100,VALID,-0.0169808,VALID,19.4462,VALID,127,VALID,0.0436357,
2009-05-10, 02:24:00,VALID,915.16,VALID,0,VALID,100,VALID,0,VALID,19.43,VALID,127,VALID,0,
2009-05-10, 02:25:01,VALID,915.164,VALID,0,VALID,100,VALID,0,VALID,19.4105,VALID,128,VALID,0,
2009-05-10, 02:26:00,VALID,915.175,VALID,0,VALID,100,VALID,-0.0169808,VALID,19.3946,VALID,128,VALID,0.0012429,
2009-05-10, 02:27:01,VALID,915.167,VALID,0,VALID,100,VALID,-0.0339617,VALID,19.3776,VALID,128,VALID,0,
2009-05-10, 02:28:00,VALID,915.151,VALID,0,VALID,100,VALID,-0.0169808,VALID,19.3679,VALID,129,VALID,0.00106534,
2009-05-10, 02:29:00,VALID,915.135,VALID,0,VALID,100,VALID,-0.0339617,VALID,19.3716,VALID,132,VALID,0.000600962,
2009-05-10, 02:30:00,VALID,915.139,VALID,0,VALID,100,VALID,-0.0169808,VALID,19.3814,VALID,135,VALID,0.00417878,
2009-05-10, 02:31:00,VALID,915.145,VALID,0,VALID,100,VALID,-0.0169808,VALID,19.4041,VALID,132,VALID,0.063244,
2009-05-10, 02:32:01,VALID,915.161,VALID,0,VALID,100,VALID,-0.0339617,VALID,19.4038,VALID,129,VALID,0.249178,
2009-05-10, 02:33:00,VALID,915.194,VALID,0,VALID,100,VALID,-0.0169808,VALID,19.3911,VALID,138,VALID,0.0842753,
2009-05-10, 02:34:00,VALID,915.209,VALID,0,VALID,100,VALID,-0.0339617,VALID,19.3878,VALID,156,VALID,0.00563227,
2009-05-10, 02:35:00,VALID,915.21,VALID,0,VALID,100,VALID,-0.0339617,VALID,19.4038,VALID,158,VALID,0.00133384,
2009-05-10, 02:36:00,VALID,915.224,VALID,0,VALID,100,VALID,-0.0169808,VALID,19.3941,VALID,152,VALID,0,
2009-05-10, 02:37:00,VALID,915.214,VALID,0,VALID,100,VALID,-0.0509425,VALID,19.3749,VALID,153,VALID,0,
2009-05-10, 02:38:00,VALID,915.218,VALID,0,VALID,100,VALID,-0.0169808,VALID,19.3716,VALID,143,VALID,0,
2009-05-10, 02:39:00,VALID,915.215,VALID,0,VALID,100,VALID,-0.0849042,VALID,19.3828,VALID,126,VALID,0,
2009-05-10, 02:40:00,VALID,915.202,VALID,0,VALID,100,VALID,-0.101885,VALID,19.3953,VALID,132,VALID,0,
2009-05-10, 02:41:01,VALID,915.189,VALID,0,VALID,100,VALID,-0.101885,VALID,19.4183,VALID,133,VALID,0,
2009-05-10, 02:42:00,VALID,915.192,VALID,0,VALID,100,VALID,-0.118866,VALID,19.412,VALID,136,VALID,0,
2009-05-10, 02:43:00,VALID,915.166,VALID,0,VALID,100,VALID,-0.0849042,VALID,19.4088,VALID,136,VALID,0,
2009-05-10, 02:44:00,VALID,915.148,VALID,0,VALID,100,VALID,-0.118866,VALID,19.409,VALID,136,VALID,0,
2009-05-10, 02:45:01,VALID,915.141,VALID,0,VALID,100,VALID,-0.101885,VALID,19.3796,VALID,130,VALID,0,
2009-05-10, 02:46:00,VALID,915.127,VALID,0,VALID,100,VALID,-0.101885,VALID,19.3831,VALID,135,VALID,0.0849848,
2009-05-10, 02:47:00,VALID,915.123,VALID,0,VALID,100,VALID,-0.101885,VALID,19.3831,VALID,137,VALID,0.15439,
2009-05-10, 02:48:01,VALID,915.118,VALID,0,VALID,100,VALID,-0.101885,VALID,19.3731,VALID,137,VALID,0.00985863,
2009-05-10, 02:49:00,VALID,915.125,VALID,0,VALID,100,VALID,-0.101885,VALID,19.3733,VALID,140,VALID,0.193677,
2009-05-10, 02:50:00,VALID,915.122,VALID,0,VALID,100,VALID,-0.101885,VALID,19.3926,VALID,153,VALID,0.18388,
2009-05-10, 02:51:01,VALID,915.111,VALID,0,VALID,100,VALID,-0.135847,VALID,19.4023,VALID,150,VALID,0.264672,
2009-05-10, 02:52:00,VALID,915.112,VALID,0,VALID,100,VALID,-0.101885,VALID,19.4153,VALID,151,VALID,0.225446,
2009-05-10, 02:53:01,VALID,915.086,VALID,0,VALID,100,VALID,-0.101885,VALID,19.4095,VALID,142,VALID,0.743963,
2009-05-10, 02:54:01,VALID,915.076,VALID,0,VALID,100,VALID,-0.0169808,VALID,19.414,VALID,143,VALID,0.12138,
2009-05-10, 02:55:01,VALID,915.071,VALID,0,VALID,100,VALID,0,VALID,19.4076,VALID,144,VALID,0.146307,
2009-05-10, 02:56:01,VALID,915.082,VALID,0,VALID,100,VALID,-0.0169808,VALID,19.4105,VALID,147,VALID,0.0869391,
2009-05-10, 02:57:01,VALID,915.09,VALID,0,VALID,100,VALID,0,VALID,19.4043,VALID,155,VALID,0.0623264,
2009-05-10, 02:58:01,VALID,915.094,VALID,0,VALID,100,VALID,0,VALID,19.4011,VALID,151,VALID,0.00260417,
2009-05-10, 02:59:01,VALID,915.079,VALID,0,VALID,100,VALID,0,VALID,19.3911,VALID,149,VALID,0.00109012,
2009-05-10, 03:00:01,VALID,915.066,VALID,0,VALID,100,VALID,-0.0509425,VALID,19.3881,VALID,143,VALID,0.0355903,
2009-05-10, 03:01:01,VALID,915.066,VALID,0,VALID,100,VALID,0,VALID,19.4006,VALID,128,VALID,0,
2009-05-10, 03:02:00,VALID,915.074,VALID,0,VALID,100,VALID,-0.0169808,VALID,19.4208,VALID,125,VALID,0.0251116,
2009-05-10, 03:03:00,VALID,915.091,VALID,0,VALID,100,VALID,0,VALID,19.4238,VALID,126,VALID,0,
2009-05-10, 03:04:00,VALID,915.077,VALID,0,VALID,100,VALID,-0.0339617,VALID,19.4305,VALID,126,VALID,0,
2009-05-10, 03:05:00,VALID,915.076,VALID,0,VALID,100,VALID,0,VALID,19.443,VALID,126,VALID,0,
2009-05-10, 03:06:00,VALID,915.06,VALID,0,VALID,100,VALID,0,VALID,19.453,VALID,126,VALID,0,
2009-05-10, 03:07:00,VALID,915.039,VALID,0,VALID,100,VALID,0,VALID,19.4462,VALID,126,VALID,0,
2009-05-10, 03:08:00,VALID,915.019,VALID,0,VALID,100,VALID,0.0509425,VALID,19.4395,VALID,126,VALID,0,
2009-05-10, 03:09:00,VALID,915.002,VALID,0,VALID,100,VALID,-0.101885,VALID,19.396,VALID,126,VALID,0,
2009-05-10, 03:10:00,VALID,915.008,VALID,0,VALID,100,VALID,-0.118866,VALID,19.3566,VALID,126,VALID,0,
2009-05-10, 03:11:00,VALID,915.008,VALID,0,VALID,100,VALID,-0.101885,VALID,19.3504,VALID,126,VALID,0,
2009-05-10, 03:12:00,VALID,915.012,VALID,0,VALID,100,VALID,-0.0849042,VALID,19.3566,VALID,126,VALID,0,
2009-05-10, 03:13:00,VALID,915.015,VALID,0,VALID,100,VALID,-0.101885,VALID,19.3763,VALID,126,VALID,0,
2009-05-10, 03:14:00,VALID,915.002,VALID,0,VALID,100,VALID,-0.118866,VALID,19.3731,VALID,136,VALID,0,
2009-05-10, 03:15:00,VALID,915.011,VALID,0,VALID,100,VALID,-0.101885,VALID,19.3733,VALID,143,VALID,0,
2009-05-10, 03:16:00,VALID,915.005,VALID,0,VALID,100,VALID,-0.152827,VALID,19.3796,VALID,144,VALID,0,
2009-05-10, 03:17:00,VALID,914.99,VALID,0,VALID,100,VALID,-0.101885,VALID,19.3993,VALID,144,VALID,0.018532,
2009-05-10, 03:18:00,VALID,914.983,VALID,0,VALID,100,VALID,-0.101885,VALID,19.4218,VALID,132,VALID,0.00372869,
2009-05-10, 03:19:00,VALID,914.971,VALID,0,VALID,100,VALID,-0.118866,VALID,19.4415,VALID,144,VALID,0.0757068,
2009-05-10, 03:20:00,VALID,914.954,VALID,0,VALID,100,VALID,-0.101885,VALID,19.4342,VALID,140,VALID,0.0524009,
2009-05-10, 03:21:00,VALID,914.946,VALID,0,VALID,100,VALID,-0.101885,VALID,19.4375,VALID,129,VALID,0.0811012,
2009-05-10, 03:22:00,VALID,914.944,VALID,0,VALID,100,VALID,-0.118866,VALID,19.4412,VALID,127,VALID,0.0403646,
2009-05-10, 03:23:00,VALID,914.948,VALID,0,VALID,100,VALID,-0.101885,VALID,19.4377,VALID,135,VALID,0.0286458,
2009-05-10, 03:24:00,VALID,914.942,VALID,0,VALID,100,VALID,-0.101885,VALID,19.4607,VALID,131,VALID,0.182776,
2009-05-10, 03:25:00,VALID,914.936,VALID,0,VALID,100,VALID,-0.101885,VALID,19.4737,VALID,130,VALID,0.127046,
2009-05-10, 03:26:00,VALID,914.927,VALID,0,VALID,100,VALID,-0.152827,VALID,19.4804,VALID,134,VALID,0.054878,
2009-05-10, 03:27:00,VALID,914.913,VALID,0,VALID,100,VALID,-0.101885,VALID,19.4837,VALID,144,VALID,0.00708576,
2009-05-10, 03:28:00,VALID,914.894,VALID,0,VALID,100,VALID,-0.0849042,VALID,19.4637,VALID,145,VALID,0,
2009-05-10, 03:29:00,VALID,914.87,VALID,0,VALID,100,VALID,-0.118866,VALID,19.4542,VALID,143,VALID,0.00106534,
2009-05-10, 03:30:00,VALID,914.827,VALID,0,VALID,100,VALID,-0.135847,VALID,19.402,VALID,140,VALID,0.0922619,
2009-05-10, 03:31:00,VALID,914.799,VALID,0,VALID,100,VALID,-0.135847,VALID,19.3601,VALID,148,VALID,0.128089,
2009-05-10, 03:32:00,VALID,914.777,VALID,0,VALID,100,VALID,-0.135847,VALID,19.3441,VALID,150,VALID,0.0430596,
2009-05-10, 03:33:00,VALID,914.758,VALID,0,VALID,100,VALID,-0.135847,VALID,19.3082,VALID,141,VALID,0.054178,
2009-05-10, 03:34:00,VALID,914.771,VALID,0,VALID,100,VALID,-0.101885,VALID,19.2625,VALID,136,VALID,0.0552734,
2009-05-10, 03:35:00,VALID,914.797,VALID,0,VALID,100,VALID,-0.118866,VALID,19.2401,VALID,142,VALID,0.00130208,
2009-05-10, 03:36:00,VALID,914.799,VALID,0,VALID,100,VALID,-0.0849042,VALID,19.2144,VALID,131,VALID,0.0012429,
2009-05-10, 03:37:00,VALID,914.808,VALID,0,VALID,100,VALID,-0.101885,VALID,19.2206,VALID,135,VALID,0.00243056,
2009-05-10, 03:38:00,VALID,914.814,VALID,0,VALID,100,VALID,-0.101885,VALID,19.2433,VALID,137,VALID,0.0232515,
2009-05-10, 03:39:00,VALID,914.819,VALID,0,VALID,100,VALID,-0.0169808,VALID,19.2421,VALID,132,VALID,0.00111607,
2009-05-10, 03:40:00,VALID,914.793,VALID,0,VALID,100,VALID,0,VALID,19.2678,VALID,133,VALID,0.112537,
2009-05-10, 03:41:00,VALID,914.809,VALID,0,VALID,100,VALID,-0.0169808,VALID,19.3002,VALID,152,VALID,0.0090843,
2009-05-10, 03:42:00,VALID,914.789,VALID,0,VALID,100,VALID,0,VALID,19.3195,VALID,140,VALID,0,
2009-05-10, 03:43:00,VALID,914.794,VALID,0,VALID,100,VALID,0,VALID,19.3264,VALID,145,VALID,0.00114329,
2009-05-10, 03:44:00,VALID,914.776,VALID,0,VALID,100,VALID,-0.0169808,VALID,19.3422,VALID,148,VALID,0.000363372,
2009-05-10, 03:45:00,VALID,914.77,VALID,0,VALID,100,VALID,0,VALID,19.3489,VALID,145,VALID,0,